Change the Weather History Date:

Thursday, June 20, 2013

  Actual Average (KCSM) Record (KCSM)
Temperature  
Mean Temperature 82 °F -  
Max Temperature 95 °F 86 °F 102 °F (1998)
Min Temperature 69 °F 65 °F 64 °F (2004)
Cooling Degree Days 17    
Growing Degree Days 32 (Base 50)    
Moisture  
Dew Point 61 °F    
Average Humidity 54    
Maximum Humidity 83    
Minimum Humidity 23    
Precipitation  
Precipitation 0.00 in - - ()
Sea Level Pressure  
Sea Level Pressure 29.93 in    
Wind  
Wind Speed 17 mph (SSE)    
Max Wind Speed 34 mph    
Max Gust Speed 43 mph    
Visibility 10 miles    
Events      
Averages and records for this station are not official NWS values.
T = Trace of Precipitation, MM = Missing Value Source: NWS Daily Summary

Daily Weather History Graph

Daily Weather History Graph

Search for Another Location

Airport or City:

Trip Planner

Search our weather history database for the weather conditions in past years. The results will help you decide how hot, cold, wet, or windy it might be!

Date:

Astronomy

Jun. 20, 2013 Rise Set
Actual Time 6:20 AM CDT 8:54 PM CDT
Civil Twilight 5:50 AM CDT 9:24 PM CDT
Nautical Twilight 5:13 AM CDT 10:01 PM CDT
Astronomical Twilight 4:31 AM CDT 10:42 PM CDT
Moon 6:01 PM CDT (6/20) 3:43 AM CDT (6/20)
Length of Visible Light 15h 33m
Length of Day
14h 33m
Waxing Gibbous, 89% of the Moon is Illuminated
Jun 20
Waxing Gibbous
Jun 23
Full
Jun 29
Last Quarter
Jul 8
New
Jul 15
First Quarter

Hourly Weather History & Observations

Time (CDT) Temp. Heat Index Dew Point Humidity Pressure Visibility Wind Dir Wind Speed Gust Speed Precip Events Conditions
12:15 AM 73.4 °F - 68.0 °F 83% 29.92 in 10.0 mi SE 15.0 mph 23.0 mph N/A   Unknown
12:35 AM 73.4 °F - 68.0 °F 83% 29.92 in 10.0 mi SSE 18.4 mph 21.9 mph N/A   Unknown
12:55 AM 73.4 °F - 68.0 °F 83% 29.92 in 10.0 mi SSE 13.8 mph 21.9 mph N/A   Unknown
1:15 AM 73.4 °F - 68.0 °F 83% 29.92 in 10.0 mi SSE 16.1 mph - N/A   Unknown
1:35 AM 73.4 °F - 66.2 °F 78% 29.91 in 10.0 mi SSE 15.0 mph - N/A   Unknown
1:55 AM 73.4 °F - 66.2 °F 78% 29.91 in 10.0 mi SSE 15.0 mph - N/A   Unknown
2:15 AM 71.6 °F - 66.2 °F 83% 29.90 in 10.0 mi SSE 13.8 mph 19.6 mph N/A   Unknown
2:35 AM 71.6 °F - 66.2 °F 83% 29.91 in 10.0 mi SSE 13.8 mph - N/A   Unknown
2:55 AM 71.6 °F - 66.2 °F 83% 29.91 in 10.0 mi SSE 9.2 mph - N/A   Unknown
3:15 AM 71.6 °F - 66.2 °F 83% 29.91 in 10.0 mi SSE 12.7 mph - N/A   Unknown
3:35 AM 71.6 °F - 64.4 °F 78% 29.91 in 10.0 mi SSE 12.7 mph - N/A   Unknown
3:55 AM 71.6 °F - 64.4 °F 78% 29.91 in 10.0 mi SSE 12.7 mph - N/A   Unknown
4:15 AM 69.8 °F - 64.4 °F 83% 29.91 in 10.0 mi SSE 13.8 mph - N/A   Unknown
4:35 AM 69.8 °F - 64.4 °F 83% 29.91 in 10.0 mi SE 15.0 mph - N/A   Unknown
4:55 AM 69.8 °F - 64.4 °F 83% 29.91 in 10.0 mi SSE 15.0 mph - N/A   Unknown
5:15 AM 69.8 °F - 64.4 °F 83% 29.92 in 10.0 mi SSE 15.0 mph - N/A   Unknown
5:35 AM 69.8 °F - 64.4 °F 83% 29.92 in 10.0 mi SSE 13.8 mph - N/A   Unknown
5:55 AM 69.8 °F - 62.6 °F 78% 29.93 in 10.0 mi SSE 10.4 mph - N/A   Unknown
6:15 AM 69.8 °F - 62.6 °F 78% 29.94 in 10.0 mi SSE 9.2 mph - N/A   Unknown
6:35 AM 69.8 °F - 62.6 °F 78% 29.94 in 10.0 mi SSE 10.4 mph - N/A   Unknown
6:55 AM 69.8 °F - 62.6 °F 78% 29.95 in 10.0 mi SSE 9.2 mph - N/A   Unknown
7:15 AM 69.8 °F - 62.6 °F 78% 29.96 in 10.0 mi SSE 10.4 mph - N/A   Unknown
7:35 AM 71.6 °F - 62.6 °F 73% 29.96 in 10.0 mi SSE 11.5 mph - N/A   Unknown
7:55 AM 71.6 °F - 62.6 °F 73% 29.96 in 10.0 mi SSE 16.1 mph - N/A   Unknown
8:15 AM 73.4 °F - 62.6 °F 69% 29.97 in 10.0 mi SSE 12.7 mph - N/A   Unknown
8:35 AM 75.2 °F - 62.6 °F 65% 29.97 in 10.0 mi South 15.0 mph - N/A   Unknown
8:55 AM 77.0 °F - 62.6 °F 61% 29.97 in 10.0 mi South 18.4 mph 23.0 mph N/A   Unknown
9:15 AM 78.8 °F - 62.6 °F 57% 29.97 in 10.0 mi South 19.6 mph 24.2 mph N/A   Unknown
9:35 AM 80.6 °F 81.8 °F 62.6 °F 54% 29.97 in 10.0 mi South 18.4 mph 23.0 mph N/A   Unknown
9:55 AM 82.4 °F 82.9 °F 60.8 °F 48% 29.97 in 10.0 mi South 18.4 mph 23.0 mph N/A   Unknown
10:15 AM 82.4 °F 82.9 °F 60.8 °F 48% 29.96 in 10.0 mi South 18.4 mph 25.3 mph N/A   Unknown
10:35 AM 82.4 °F 82.9 °F 60.8 °F 48% 29.97 in 10.0 mi South 19.6 mph 24.2 mph N/A   Unknown
10:55 AM 86.0 °F 86.1 °F 60.8 °F 43% 29.97 in 10.0 mi South 16.1 mph 24.2 mph N/A   Unknown
11:35 AM 87.8 °F 87.6 °F 60.8 °F 40% 29.96 in 10.0 mi South 19.6 mph 25.3 mph N/A   Unknown
11:55 AM 87.8 °F 88.5 °F 62.6 °F 43% 29.96 in 10.0 mi South 20.7 mph - N/A   Unknown
12:15 PM 87.8 °F 88.5 °F 62.6 °F 43% 29.96 in 10.0 mi South 20.7 mph 26.5 mph N/A   Unknown
12:35 PM 87.8 °F 87.6 °F 60.8 °F 40% 29.96 in 10.0 mi South 20.7 mph 27.6 mph N/A   Unknown
1:15 PM 87.8 °F 88.5 °F 62.6 °F 43% 29.95 in 10.0 mi SSE 20.7 mph 29.9 mph N/A   Unknown
1:35 PM 89.6 °F 90.1 °F 62.6 °F 40% 29.95 in 10.0 mi South 20.7 mph 29.9 mph N/A   Unknown
1:55 PM 91.4 °F 91.4 °F 60.8 °F 36% 29.94 in 10.0 mi South 23.0 mph 29.9 mph N/A   Unknown
2:15 PM 91.4 °F 90.7 °F 59.0 °F 34% 29.93 in 10.0 mi SSE 29.9 mph 36.8 mph N/A   Unknown
2:35 PM 93.2 °F 92.6 °F 59.0 °F 32% 29.93 in 10.0 mi SSE 23.0 mph 34.5 mph N/A   Unknown
2:55 PM 95.0 °F 93.0 °F 55.4 °F 26% 29.92 in 10.0 mi South 28.8 mph 36.8 mph N/A   Unknown
3:15 PM 95.0 °F 93.7 °F 57.2 °F 28% 29.91 in 10.0 mi SSE 28.8 mph 40.3 mph N/A   Unknown
3:35 PM 95.0 °F 93.0 °F 55.4 °F 26% 29.90 in 10.0 mi South 31.1 mph 40.3 mph N/A   Unknown
3:55 PM 95.0 °F - 51.8 °F 23% 29.89 in 10.0 mi South 34.5 mph 41.4 mph N/A   Unknown
4:15 PM 95.0 °F 92.7 °F 53.6 °F 25% 29.89 in 10.0 mi South 28.8 mph 39.1 mph N/A   Unknown
4:35 PM 95.0 °F 93.0 °F 55.4 °F 26% 29.88 in 10.0 mi South 32.2 mph 40.3 mph N/A   Unknown
4:55 PM 95.0 °F 92.7 °F 53.6 °F 25% 29.88 in 10.0 mi South 32.2 mph 42.6 mph N/A   Unknown
5:15 PM 95.0 °F 92.7 °F 53.6 °F 25% 29.88 in 10.0 mi South 24.2 mph 39.1 mph N/A   Unknown
5:35 PM 95.0 °F 93.0 °F 55.4 °F 26% 29.87 in 10.0 mi South 26.5 mph 39.1 mph N/A   Unknown
5:55 PM 93.2 °F 90.8 °F 53.6 °F 26% 29.86 in 10.0 mi South 28.8 mph 35.7 mph N/A   Unknown
6:15 PM 93.2 °F 90.8 °F 53.6 °F 26% 29.86 in 10.0 mi South 31.1 mph 36.8 mph N/A   Unknown
6:35 PM 93.2 °F 90.8 °F 53.6 °F 26% 29.86 in 10.0 mi South 28.8 mph 36.8 mph N/A   Unknown
6:55 PM 91.4 °F 89.1 °F 53.6 °F 28% 29.87 in 10.0 mi South 24.2 mph 36.8 mph N/A   Unknown
7:15 PM 91.4 °F 89.1 °F 53.6 °F 28% 29.87 in 10.0 mi South 25.3 mph 35.7 mph N/A   Unknown
7:35 PM 89.6 °F 87.7 °F 55.4 °F 31% 29.88 in 10.0 mi South 20.7 mph 26.5 mph N/A   Unknown
7:55 PM 89.6 °F 87.7 °F 55.4 °F 31% 29.89 in 10.0 mi South 23.0 mph 29.9 mph N/A   Unknown
8:15 PM 87.8 °F 86.1 °F 55.4 °F 33% 29.90 in 10.0 mi South 17.3 mph 27.6 mph N/A   Unknown
8:35 PM 87.8 °F 86.5 °F 57.2 °F 35% 29.91 in 10.0 mi South 17.3 mph 28.8 mph N/A   Unknown
8:55 PM 86.0 °F 84.9 °F 57.2 °F 37% 29.91 in 10.0 mi South 17.3 mph 28.8 mph N/A   Unknown
9:15 PM 84.2 °F 83.8 °F 59.0 °F 42% 29.92 in 10.0 mi South 15.0 mph - N/A   Unknown
9:35 PM 84.2 °F 84.4 °F 60.8 °F 45% 29.93 in 10.0 mi SSE 13.8 mph - N/A   Unknown
9:55 PM 82.4 °F 82.9 °F 60.8 °F 48% 29.94 in 10.0 mi SSE 13.8 mph - N/A   Unknown
10:15 PM 80.6 °F 81.8 °F 62.6 °F 54% 29.95 in 10.0 mi SSE 11.5 mph - N/A   Unknown
10:35 PM 80.6 °F 82.3 °F 64.4 °F 58% 29.96 in 10.0 mi SSE 11.5 mph - N/A   Unknown
10:55 PM 80.6 °F 82.3 °F 64.4 °F 58% 29.96 in 10.0 mi SSE 12.7 mph - N/A   Unknown
11:15 PM 78.8 °F - 64.4 °F 61% 29.97 in 10.0 mi SSE 11.5 mph - N/A   Unknown
11:35 PM 78.8 °F - 64.4 °F 61% 29.96 in 10.0 mi SSE 10.4 mph - N/A   Unknown
11:55 PM 78.8 °F - 62.6 °F 57% 29.96 in 10.0 mi SSE 13.8 mph - N/A   Unknown